GFSGL_925_spd_057.txt.gz
Wind_Speed
29 27 23 24 26 29 32 30 28 26 27 26 26 22 21 22 18 13 12 12 15 14 12 10 9 9 8 7 10 10 9 9 5 6 16 15 15 18 18 18 20 20 19
26 25 23 25 26 32 30 29 28 27 26 27 24 23 21 18 15 13 13 12 19 18 14 12 11 9 7 7 9 11 10 13 19 12 11 16 17 14 17 17 19 18 19
28 27 25 25 25 28 30 30 34 32 28 26 24 19 17 17 16 15 12 10 17 14 13 13 13 9 8 6 8 10 10 17 24 18 11 16 17 19 19 17 18 19 21
24 26 27 27 30 32 32 27 30 28 26 25 21 16 19 18 20 12 14 13 14 12 14 14 12 10 7 5 10 12 13 22 22 23 17 16 13 18 21 23 19 19 22
28 27 27 31 29 29 27 26 26 21 18 20 18 16 17 22 16 14 14 15 12 13 13 12 10 8 8 4 11 13 20 25 24 18 14 11 13 16 18 16 20 22 23
29 26 27 29 27 26 22 23 21 20 19 17 18 21 19 18 16 14 12 13 12 12 13 11 8 7 9 8 10 12 23 29 21 18 13 15 13 18 22 26 23 18 5
28 27 26 27 26 23 22 21 19 18 18 24 22 20 17 14 12 12 12 12 13 11 10 9 7 7 8 8 8 12 23 22 23 26 21 19 20 25 29 27 19 17 10
27 25 26 28 26 23 22 19 16 22 23 21 20 18 16 12 9 10 10 13 14 10 7 8 8 5 8 10 10 23 20 18 19 21 25 24 24 28 30 30 26 22 24
24 25 25 29 25 22 21 19 19 21 20 19 19 16 13 11 11 11 11 13 13 10 9 9 6 4 9 14 21 25 22 20 13 15 21 21 23 26 28 31 27 26 11
27 26 32 30 27 24 21 17 21 20 18 18 17 13 10 14 12 10 11 14 15 11 9 8 6 6 9 17 27 28 24 24 21 21 19 18 23 23 25 27 32 25 19
30 29 30 31 30 25 21 21 18 18 19 21 19 14 12 13 12 8 12 15 14 12 11 9 6 9 11 22 27 27 28 25 24 24 24 24 23 24 22 23 28 30 25
34 33 29 31 24 27 25 21 20 22 24 21 20 18 13 11 9 8 10 13 13 13 14 11 11 12 15 23 26 25 26 26 25 25 24 23 24 20 17 19 22 22 21
34 31 31 27 26 25 23 21 21 24 24 22 20 16 15 11 10 9 10 13 10 14 15 14 16 15 19 17 24 27 26 25 23 21 19 18 23 20 19 18 17 17 15
31 29 30 30 27 23 22 22 23 24 22 20 20 16 16 14 12 11 11 13 12 14 19 20 18 18 21 26 29 23 22 23 25 22 20 20 21 22 21 20 20 21 19
30 26 29 26 23 22 18 15 18 20 23 24 24 25 22 17 16 13 12 12 16 21 24 23 20 22 25 25 18 19 20 20 21 21 22 21 22 23 22 19 17 18 11
25 22 25 25 25 24 22 18 11 8 13 16 21 24 22 17 16 15 12 12 18 22 21 19 19 21 20 19 20 21 20 20 20 21 22 20 18 19 20 23 17 16 11
27 23 28 25 23 21 22 22 15 14 14 17 18 19 21 22 20 17 14 18 19 17 18 17 17 19 19 19 21 23 21 20 21 21 22 22 21 19 22 20 20 15 11
29 32 27 23 22 22 21 22 24 19 17 18 19 22 22 21 19 18 22 23 17 13 18 18 17 19 20 21 23 20 20 22 22 23 21 20 22 20 21 19 20 18 19
27 26 24 25 22 26 24 23 22 21 21 20 21 21 20 18 17 23 23 19 13 14 16 18 20 20 22 23 22 21 20 22 21 20 21 20 22 21 23 18 22 22 22
27 25 25 24 25 25 22 22 21 22 21 19 18 21 22 24 22 20 15 13 9 12 15 17 19 20 21 23 22 16 17 18 19 19 19 19 19 21 21 21 21 23 23
20 23 29 25 27 23 22 26 23 22 20 19 24 25 24 24 23 19 16 14 11 11 15 15 19 19 19 20 17 21 16 18 20 19 16 20 21 21 23 23 23 22 21
30 25 28 26 24 24 25 22 25 23 22 22 25 25 21 21 21 17 17 17 14 15 15 17 17 16 18 20 18 19 20 18 17 18 19 19 21 23 25 25 25 25 24
30 26 19 15 25 25 27 25 24 25 24 24 30 30 27 22 18 17 14 10 7 9 7 8 8 11 14 14 18 18 19 19 19 17 19 21 23 25 25 25 25 26 28
25 27 15 13 24 24 23 25 25 26 27 24 18 11 11 5 7 11 15 17 20 20 18 18 16 16 13 13 12 12 12 13 15 17 20 19 19 18 22 23 23 23 23
19 21 29 26 21 15 26 20 23 24 25 24 22 21 23 25 26 25 24 24 24 26 24 21 21 20 19 16 10 7 5 5 2 6 8 6 7 7 9 12 12 14 15
30 29 24 32 32 22 30 31 28 33 30 28 27 28 29 29 31 30 28 29 30 30 30 30 28 27 25 23 21 19 15 11 11 9 8 5 4 8 12 13 13 16 17

GFSGL_925_spd_060.txt.gz
Wind_Speed
28 30 29 28 30 31 27 27 28 29 29 28 26 24 22 22 22 21 18 16 15 16 14 14 13 13 13 11 12 12 11 10 4 2 5 10 17 15 12 7 9 12 15
21 25 27 25 25 27 27 28 30 30 26 28 26 24 23 24 22 19 17 16 17 18 16 16 14 13 12 11 12 13 12 13 8 9 8 9 12 16 14 11 10 12 14
24 26 26 26 28 28 28 30 31 30 30 28 27 24 25 25 22 17 18 14 17 17 17 15 15 14 12 11 10 10 11 12 16 15 10 14 16 18 16 11 11 12 10
28 28 26 27 28 30 31 32 32 32 31 29 27 27 26 23 20 18 15 14 15 18 16 14 14 13 12 11 11 12 11 16 20 18 15 16 13 15 17 18 15 14 15
28 25 24 26 26 30 33 33 34 33 32 30 29 25 22 22 21 19 16 17 18 16 15 14 14 13 10 9 12 14 15 19 20 17 13 12 10 15 17 17 19 18 16
23 25 29 29 32 32 32 32 32 31 32 30 25 21 21 21 19 15 16 17 16 15 15 14 12 10 10 10 8 15 19 27 19 15 12 14 14 15 19 22 23 15 4
26 27 29 30 29 33 33 30 28 29 27 25 21 20 19 20 20 17 15 15 15 13 12 13 11 9 10 11 9 13 15 25 26 28 22 20 19 22 25 24 18 17 9
27 27 29 30 29 32 33 31 27 25 25 25 24 23 22 18 16 14 14 14 13 12 10 10 9 10 10 11 11 14 18 20 21 21 22 25 23 25 26 24 22 18 19
24 28 29 31 32 32 30 27 25 26 27 27 24 22 19 17 14 14 13 14 14 12 9 9 9 7 10 12 13 21 20 16 13 11 16 20 19 24 26 28 24 23 10
27 29 31 34 35 31 28 27 28 30 28 26 22 17 15 14 14 13 13 16 15 12 11 10 8 7 11 15 21 26 24 19 17 18 19 17 18 21 24 24 30 20 14
31 31 31 34 33 30 28 30 30 29 27 24 20 15 13 13 13 12 13 15 16 14 12 10 9 10 13 21 25 25 24 23 20 22 22 22 22 23 24 22 28 29 21
32 29 29 33 28 31 31 29 28 29 27 25 21 16 14 13 10 9 12 14 14 13 13 10 8 13 14 24 25 21 24 24 23 23 22 23 24 25 23 20 22 23 20
29 26 27 29 29 32 31 28 26 28 25 18 16 15 14 11 10 9 12 12 11 10 12 9 10 13 19 23 22 25 25 22 22 18 16 16 21 23 19 19 18 18 17
27 27 27 27 28 29 28 29 26 23 21 19 16 15 16 14 12 11 13 14 10 12 14 13 14 21 20 25 26 24 22 21 22 19 17 19 18 19 19 20 19 20 16
28 25 22 25 28 25 22 20 24 26 28 26 23 21 20 15 16 14 14 16 16 18 20 18 17 21 25 24 22 20 19 21 22 21 20 18 19 19 18 17 17 20 12
24 23 23 25 27 26 23 17 19 20 22 23 23 23 20 16 16 13 10 10 15 23 21 18 18 18 18 19 20 19 19 20 20 21 20 21 21 19 18 16 16 20 17
28 25 25 26 24 21 17 20 15 11 17 21 21 22 19 19 19 12 10 13 20 22 16 18 17 19 19 20 20 20 20 18 18 19 20 19 19 18 18 17 15 16 15
32 34 28 24 23 22 21 21 21 17 16 15 24 22 19 19 19 16 17 19 15 13 17 18 19 20 20 21 19 18 16 16 16 16 16 17 18 17 18 18 19 17 13
27 26 23 23 23 23 22 22 19 20 17 20 20 20 21 21 19 18 21 18 13 14 15 17 20 21 22 18 20 17 16 17 16 16 16 15 17 18 16 17 19 17 17
26 29 26 22 25 21 23 22 19 18 19 18 19 25 24 23 23 23 17 15 12 13 15 17 19 20 22 20 18 16 17 17 16 17 17 17 16 16 18 21 20 23 27
29 29 25 25 22 21 21 20 20 19 17 17 19 25 26 20 20 22 17 13 9 13 12 15 17 18 21 21 18 15 15 15 17 18 17 17 17 19 20 18 21 21 21
27 25 27 24 23 22 24 23 21 20 18 17 17 22 20 19 22 18 16 10 5 6 10 11 14 14 15 16 20 20 17 16 17 18 18 17 17 19 19 20 21 21 22
30 26 21 20 21 24 24 23 21 19 19 19 17 19 15 14 13 8 8 8 5 9 11 12 12 12 13 14 14 14 17 20 14 15 19 19 19 20 20 22 22 24 25
25 24 27 24 27 22 21 21 23 24 23 23 20 20 15 13 16 16 17 16 16 15 16 16 13 10 10 8 11 12 15 16 15 14 16 15 15 16 17 17 16 13 13
23 21 24 24 26 24 27 28 26 26 25 23 23 21 19 22 23 24 22 22 22 21 19 18 17 14 12 11 9 6 5 6 7 8 7 9 8 7 5 12 15 13 10
25 24 25 26 26 28 28 26 24 25 25 25 26 24 23 23 24 26 26 27 27 26 26 25 24 23 22 20 16 11 10 8 9 11 13 15 15 15 13 13 12 14 14

GFSGL_925_spd_063.txt.gz
Wind_Speed
42 39 36 34 32 30 27 27 29 27 27 30 30 27 25 24 24 21 21 21 19 16 15 15 13 12 12 12 11 10 11 9 3 3 3 2 8 10 8 7 9 10 12
34 40 38 34 30 26 26 26 29 28 29 30 31 28 25 27 24 23 23 20 18 18 17 15 14 13 13 13 11 11 11 12 6 6 4 3 8 10 8 8 8 9 11
21 28 29 27 27 28 25 29 28 28 28 31 31 27 28 27 26 25 21 18 17 18 18 15 14 14 14 13 11 10 11 13 11 11 6 5 6 12 10 12 9 9 8
18 23 25 29 31 28 31 31 29 28 31 30 30 30 28 26 27 22 18 17 17 18 17 14 14 15 15 12 10 11 12 13 13 15 11 9 8 12 15 17 12 13 13
23 26 28 30 29 29 29 27 27 30 32 32 31 29 26 27 25 20 20 19 17 18 16 14 14 13 11 10 10 12 14 16 17 15 11 9 9 13 13 14 14 15 13
18 19 23 26 26 24 25 28 31 30 31 31 30 28 27 26 23 22 20 19 18 18 17 15 13 12 11 10 8 11 16 20 16 12 10 12 12 13 13 18 17 12 4
15 19 22 25 25 26 30 31 31 32 33 33 30 27 25 23 22 19 18 18 18 17 14 13 12 12 10 11 10 11 14 13 17 22 23 19 16 20 21 21 17 9 7
3 18 22 24 25 28 29 29 31 33 33 31 25 24 23 21 21 19 17 17 15 12 12 11 11 10 10 11 11 11 12 14 18 19 22 24 22 23 21 21 18 15 15
16 13 23 26 27 28 28 32 33 32 30 27 26 24 24 22 20 18 17 15 13 12 11 10 10 10 10 12 12 14 14 14 13 13 13 16 21 22 22 23 23 20 6
11 14 24 27 31 27 32 33 31 31 29 27 24 23 20 21 18 16 15 16 16 14 10 9 10 9 9 14 15 18 20 17 15 14 14 16 18 21 19 22 27 19 11
12 19 23 26 31 37 35 32 30 28 27 26 23 18 16 15 16 14 15 18 17 15 13 12 10 9 10 13 14 21 23 21 17 17 18 19 20 21 22 21 25 27 21
6 27 27 27 30 34 34 29 28 29 27 23 20 15 13 13 13 14 15 15 13 13 14 12 10 9 11 15 14 16 18 18 18 20 19 18 20 22 21 19 21 22 22
26 24 27 29 31 33 32 27 25 27 22 17 15 15 15 13 12 13 15 13 12 9 9 10 8 10 11 16 16 17 20 19 19 17 16 15 17 18 17 15 16 16 13
19 25 27 28 26 26 28 29 26 21 18 17 14 13 15 14 12 13 16 14 13 10 12 9 10 13 17 17 18 19 18 16 19 18 16 16 15 14 15 16 15 15 13
24 24 23 26 25 23 22 19 24 25 25 21 17 20 17 13 15 14 17 15 13 15 16 14 18 18 20 23 21 19 17 16 18 17 16 15 14 16 15 15 15 17 10
23 22 23 23 22 24 24 18 20 23 22 22 21 20 17 14 15 13 13 14 14 18 18 16 16 19 19 18 19 18 16 17 17 18 17 16 16 15 14 14 13 19 14
24 23 24 24 20 18 17 17 14 13 17 18 18 15 12 16 16 13 11 11 16 20 17 17 17 18 17 18 20 19 17 16 16 17 17 17 16 14 13 12 10 14 15
24 30 27 24 23 17 16 15 17 16 14 14 16 15 13 16 17 12 13 19 17 14 19 18 17 19 21 20 17 15 13 14 14 14 14 14 15 16 13 12 12 11 14
24 22 22 20 21 21 21 18 15 15 14 18 17 16 17 19 15 13 17 17 17 15 17 18 19 20 20 17 16 14 14 15 14 14 15 15 15 16 15 16 17 16 15
22 24 26 24 23 21 20 19 14 15 15 15 17 22 24 23 20 19 11 11 11 12 14 17 18 18 19 16 16 14 13 13 14 14 15 15 15 16 15 15 16 18 20
24 26 26 23 22 21 19 18 15 16 14 13 18 25 25 23 16 15 10 8 7 9 12 13 14 16 18 18 15 15 15 14 13 13 14 13 14 13 13 14 16 18 18
26 27 23 21 22 21 20 22 16 15 15 17 18 20 16 15 15 16 10 6 6 7 8 10 13 13 15 16 15 15 14 13 13 13 13 12 12 13 13 14 15 16 17
24 24 23 21 20 23 21 20 18 18 18 19 21 19 13 15 16 13 11 8 9 10 11 10 11 11 10 11 13 15 14 12 10 11 13 14 15 15 15 16 16 15 17
26 23 25 24 24 22 22 21 22 20 18 19 20 17 14 15 16 15 14 14 13 14 14 13 12 10 10 10 10 10 11 11 12 12 11 14 15 15 14 12 11 12 12
22 22 26 27 25 23 25 22 22 23 20 18 18 19 19 18 17 18 18 18 18 17 16 14 12 11 9 8 6 6 6 8 10 9 8 9 9 8 8 10 12 11 10
19 25 26 26 24 26 25 23 21 22 22 24 23 20 20 20 20 21 21 21 22 23 22 21 20 18 17 16 14 11 9 9 8 6 8 11 13 15 15 16 15 14 12

GFSGL_925_spd_069.txt.gz
Wind_Speed
27 28 27 30 32 31 31 31 30 28 29 29 25 20 18 18 20 20 18 17 18 21 22 22 15 13 11 10 10 9 9 9 7 3 3 2 3 5 4 3 4 10 12
30 30 31 29 30 29 28 27 25 26 26 25 23 20 19 22 23 22 19 18 20 24 23 18 16 13 12 11 11 11 11 9 8 7 4 4 3 6 4 4 4 5 10
31 31 33 30 29 30 29 27 27 26 25 23 21 22 24 25 24 22 21 20 24 27 25 18 16 14 13 12 12 11 10 9 9 8 5 5 5 9 8 7 6 7 8
32 31 35 29 31 31 28 30 29 24 23 23 22 22 24 25 24 21 21 22 26 25 22 15 15 16 14 13 13 13 10 9 10 9 7 8 9 12 8 11 8 9 8
32 30 37 27 28 27 26 27 25 24 22 21 22 23 24 24 23 22 22 25 25 23 14 14 14 14 14 14 13 13 12 11 11 11 9 8 7 11 12 9 8 12 11
29 29 38 26 25 25 24 25 23 22 23 24 25 25 25 23 25 28 28 25 24 16 16 15 13 14 13 14 15 14 13 13 11 13 11 12 13 13 13 13 14 13 4
30 33 36 19 22 24 25 23 25 27 26 26 25 24 24 21 28 29 26 24 17 16 15 15 13 12 13 13 14 12 12 14 13 14 16 15 16 20 18 14 15 14 7
28 34 30 16 17 22 23 23 25 27 27 27 24 24 24 22 31 30 26 17 15 14 14 14 13 12 13 13 11 9 10 11 12 13 15 13 14 22 18 16 16 12 14
30 29 20 12 15 20 24 23 23 26 24 25 26 27 26 33 32 29 23 16 14 13 12 12 12 12 13 14 10 10 10 11 15 12 12 12 16 18 17 17 18 15 9
30 24 18 15 15 20 21 23 23 25 25 25 25 24 32 32 30 26 22 16 15 13 11 11 14 11 12 13 11 11 13 13 13 12 11 11 13 17 19 18 23 13 11
26 22 17 12 12 17 20 22 24 24 24 28 29 25 23 26 28 26 22 17 16 14 12 11 12 12 12 13 12 12 14 14 13 12 12 13 14 17 19 14 15 14 15
25 18 16 12 14 20 23 24 25 29 28 26 23 16 15 20 26 23 21 17 16 13 12 10 11 12 11 13 14 12 10 13 13 13 15 13 11 17 13 12 14 7 7
19 15 12 15 20 23 26 26 25 27 28 21 20 18 14 16 20 21 18 14 14 11 10 13 12 11 11 13 10 10 13 13 13 12 14 13 11 11 10 11 9 7 6
15 17 14 17 20 23 26 27 28 24 23 22 19 18 16 14 16 20 18 16 15 14 13 13 12 14 16 14 15 16 11 10 11 11 12 12 11 12 12 10 10 9 8
10 3 16 18 18 20 21 25 22 23 25 24 21 21 20 16 17 23 23 19 14 15 18 16 16 17 18 19 15 11 9 10 11 11 12 12 13 13 12 13 10 11 9
11 6 15 19 18 19 21 27 19 21 24 24 25 21 15 16 23 22 20 18 15 18 14 16 16 17 17 17 13 12 9 9 9 10 10 13 13 15 13 10 9 10 10
14 14 18 20 17 17 20 22 18 24 21 20 19 15 16 23 23 22 19 16 14 15 11 16 16 16 16 15 14 13 11 9 11 9 9 10 11 12 14 10 9 10 8
15 20 23 21 17 20 21 22 22 19 15 15 19 17 21 22 21 21 18 17 18 11 15 16 16 16 17 15 13 10 10 11 11 10 10 9 10 13 11 11 10 9 9
14 21 25 25 19 20 20 21 20 20 19 17 19 23 23 21 17 16 17 13 11 13 15 14 18 17 14 13 12 10 10 10 10 10 9 8 8 8 9 8 8 8 8
22 23 24 22 21 19 19 19 18 19 19 18 19 22 24 21 17 11 9 10 10 11 15 17 16 15 16 12 13 11 9 10 10 9 8 9 9 9 9 9 9 9 8
24 25 27 22 19 18 18 18 19 20 18 17 18 26 21 17 14 11 10 10 11 10 13 16 15 13 14 13 12 11 10 9 9 9 9 10 9 9 9 10 9 9 9
23 23 22 21 19 18 18 19 19 19 18 19 23 23 20 15 14 13 11 10 9 9 10 15 13 12 12 10 10 10 10 9 9 9 8 9 8 8 7 7 9 10 10
24 23 21 19 18 22 19 19 19 19 20 22 25 23 18 16 15 16 15 16 15 15 14 13 13 12 12 12 10 10 9 9 8 8 8 7 8 8 9 10 8 8 9
22 22 20 22 19 19 19 19 20 23 24 24 22 19 18 19 19 17 17 18 19 18 17 16 15 13 13 15 13 13 11 10 8 7 7 9 8 8 8 8 9 9 7
20 21 21 21 20 20 21 21 21 22 22 22 21 20 22 21 21 20 20 20 20 19 17 16 14 12 11 10 10 10 11 10 8 7 6 6 5 3 4 7 7 9 8
19 20 21 21 23 22 22 22 22 23 23 22 22 23 24 21 24 24 23 23 24 24 24 22 18 16 15 13 11 10 10 10 8 8 9 11 13 14 15 16 16 18 17

GFSGL_925_spd_072.txt.gz
Wind_Speed
22 23 23 25 25 27 28 30 29 27 25 29 29 28 27 28 27 27 25 23 20 19 18 20 19 16 15 14 14 13 13 13 9 7 3 5 5 6 5 5 4 7 9
19 22 25 24 26 28 31 32 30 29 28 29 30 27 28 28 26 27 27 21 21 21 21 20 19 16 15 13 14 13 13 11 12 6 6 5 6 8 6 4 2 4 7
27 25 24 26 28 28 32 32 32 30 30 30 28 29 31 29 27 28 23 20 22 23 23 21 19 17 16 15 15 13 14 12 11 11 7 7 5 7 5 4 4 4 6
28 27 28 27 26 29 32 32 31 31 29 30 32 32 30 28 27 24 21 22 23 23 22 20 19 18 16 16 15 14 13 12 11 11 7 9 7 7 7 7 5 6 5
28 29 29 29 29 29 31 30 30 29 32 34 33 30 28 27 25 24 24 24 23 21 21 18 16 15 16 16 16 15 13 14 14 13 10 8 9 8 11 8 7 7 5
30 31 29 28 29 28 29 29 30 31 33 32 32 30 28 25 26 28 26 24 22 23 21 16 14 17 17 19 18 10 13 13 12 12 11 12 11 12 10 12 11 9 4
31 31 30 28 29 26 31 30 32 32 30 30 30 29 28 24 30 31 28 23 23 22 19 18 17 16 16 15 16 16 15 15 11 11 12 12 13 14 15 12 12 12 6
31 30 28 28 26 26 32 31 30 30 30 29 30 29 28 24 31 33 31 22 21 19 18 18 19 18 17 15 13 14 12 11 12 12 11 11 11 14 18 13 14 9 9
30 28 28 26 18 28 29 30 30 29 28 28 29 30 28 24 35 34 29 22 19 18 17 17 17 16 16 18 13 13 11 7 12 11 8 8 8 11 18 14 15 13 8
26 27 31 29 23 32 28 26 28 28 28 27 27 28 28 29 37 35 26 22 20 19 16 14 16 13 15 17 13 10 12 10 11 9 8 10 8 13 16 14 19 13 7
27 28 31 31 40 30 23 25 26 27 26 24 24 24 25 33 39 36 26 21 21 19 16 13 13 15 14 15 14 10 10 11 11 12 11 9 10 14 17 10 15 21 15
26 27 36 47 33 22 27 25 25 26 26 26 26 23 22 28 36 33 26 15 16 16 15 13 12 16 14 15 14 11 10 13 12 12 13 13 13 13 13 10 9 7 5
25 27 32 25 18 18 23 24 24 25 25 24 25 22 20 20 22 27 23 19 18 11 11 13 13 15 14 14 14 11 11 13 13 12 13 13 12 13 16 11 8 10 4
27 26 14 4 11 17 18 22 24 23 23 24 23 21 21 22 21 19 18 18 17 13 14 14 15 15 14 13 14 13 12 12 13 12 13 15 13 12 12 12 11 11 8
20 21 17 9 14 16 16 17 21 24 31 28 25 25 26 24 23 24 23 19 19 17 17 15 14 16 15 14 15 12 12 12 14 14 14 15 14 12 11 11 11 12 10
18 10 3 15 17 19 19 22 21 26 27 27 26 26 20 23 28 26 25 21 20 22 15 14 13 17 17 16 12 11 10 10 11 11 11 11 10 11 10 9 8 10 8
13 6 13 18 19 19 20 22 17 25 29 28 24 25 24 24 28 27 24 20 19 16 11 13 13 16 17 16 13 11 11 10 11 10 11 11 10 10 12 10 10 8 8
14 9 14 18 17 21 21 21 22 21 19 18 22 21 25 30 28 26 23 22 17 8 11 13 14 16 17 15 14 10 11 11 11 10 10 10 10 10 10 10 10 8 9
15 11 19 18 21 22 23 23 23 23 22 20 20 26 26 26 23 22 21 15 13 10 11 12 17 16 16 14 12 9 11 11 10 10 9 9 9 9 9 7 9 8 9
21 21 18 18 25 24 23 21 21 22 22 22 21 19 24 23 17 17 11 13 12 11 14 14 16 14 16 15 14 11 10 11 11 11 10 10 9 9 9 10 9 8 9
21 25 24 24 25 23 22 21 22 23 21 21 22 22 22 18 17 15 14 14 13 12 17 17 13 15 15 12 14 12 12 11 10 9 9 9 8 8 8 7 8 8 8
22 27 26 24 24 22 22 23 24 23 22 22 19 18 16 16 16 16 14 12 12 12 15 16 13 13 12 15 15 14 11 10 9 9 8 8 9 9 8 8 8 9 9
24 23 24 23 22 23 21 22 21 22 24 22 21 21 13 16 15 14 14 15 17 17 18 17 16 16 10 8 9 9 9 9 10 9 8 8 8 7 6 7 8 10 9
25 24 22 22 23 22 21 20 20 22 25 23 23 16 17 16 15 17 17 18 17 17 17 16 16 15 13 10 9 12 12 10 7 7 6 6 6 7 7 9 10 10 9
25 24 22 22 20 20 23 22 22 23 23 22 22 22 18 17 18 20 20 21 18 18 17 16 15 13 13 12 10 11 10 11 7 8 8 7 9 7 6 7 7 8 9
24 22 20 21 21 22 22 23 23 25 25 24 23 20 19 18 17 21 21 20 18 18 19 17 15 14 12 10 9 10 10 10 8 7 8 8 10 11 12 13 14 16 15

GFSGL_925_spd_075.txt.gz
Wind_Speed
17 17 16 16 19 21 22 23 25 24 26 30 32 27 30 29 28 27 25 24 24 23 22 22 24 21 19 20 17 18 15 13 3 2 10 7 4 6 7 7 8 10 13
19 20 22 19 21 22 22 24 26 28 26 28 29 30 30 29 29 29 29 26 26 25 23 22 24 20 20 15 16 15 15 9 14 5 5 5 7 8 9 8 7 7 7
19 22 24 26 23 24 24 25 27 28 28 29 30 29 31 32 32 33 30 28 27 25 25 25 23 22 21 16 17 14 16 13 11 14 7 8 8 10 9 7 4 5 4
19 22 25 27 28 28 27 27 29 29 30 30 31 31 33 32 33 32 30 29 25 23 25 24 22 24 20 17 17 14 12 13 13 6 8 9 9 10 12 9 5 5 3
26 27 28 28 29 32 33 31 29 31 32 31 31 32 33 33 33 32 31 27 24 23 23 22 22 21 17 17 15 16 15 14 9 10 9 11 11 10 12 10 8 7 4
29 31 32 32 31 33 33 33 30 32 34 30 33 33 34 33 35 36 30 26 26 24 23 22 19 18 18 17 19 7 14 11 13 11 10 11 13 11 10 11 10 10 3
33 35 32 32 35 34 34 32 33 31 31 31 33 34 35 35 35 38 31 26 26 24 22 22 19 18 16 16 19 15 10 12 12 10 10 11 12 14 13 13 12 14 8
34 34 33 34 35 34 31 32 33 31 31 32 34 36 33 32 36 39 34 26 24 23 22 22 21 18 18 16 14 13 13 12 14 13 12 9 9 11 14 14 12 7 7
35 34 33 36 36 37 29 31 30 31 32 34 34 35 34 30 41 42 37 26 22 22 21 20 18 17 18 19 14 12 12 11 11 11 10 10 11 11 14 11 9 11 6
36 27 31 31 33 29 30 31 32 26 32 32 32 34 33 28 43 44 34 25 23 22 20 18 18 15 18 19 14 13 13 11 9 6 7 6 7 6 13 13 12 11 7
31 31 34 34 34 30 30 30 30 27 31 33 34 32 28 30 43 42 31 26 25 22 19 16 15 13 16 15 17 10 10 10 11 8 8 9 9 11 14 11 11 14 12
35 31 30 31 31 29 30 30 28 34 34 31 31 29 25 29 37 39 25 24 23 19 17 18 18 19 17 15 14 9 10 11 10 10 10 10 12 12 13 10 10 14 15
34 29 29 34 32 35 30 28 33 37 29 24 24 21 24 27 30 31 25 17 23 17 16 16 14 17 16 16 14 12 12 11 12 11 10 13 15 15 14 10 6 14 10
31 25 31 32 34 19 21 30 32 24 24 22 22 21 24 28 27 23 24 23 20 16 18 15 14 15 13 14 15 13 10 12 14 12 11 10 11 12 14 12 10 10 8
28 28 31 46 59 45 34 31 29 27 29 27 27 30 29 26 27 27 24 21 20 19 17 16 15 14 13 13 12 12 11 13 10 10 13 12 13 13 13 13 11 11 12
25 17 24 12 10 27 26 26 25 23 24 25 31 30 28 29 31 29 25 22 22 24 17 15 13 13 14 13 14 16 15 15 13 15 15 16 13 13 12 11 12 12 13
19 20 23 8 15 19 22 24 11 29 32 32 26 26 28 38 36 31 25 23 21 22 12 15 14 15 14 15 14 14 13 13 15 14 12 12 11 10 10 9 9 9 8
16 17 20 6 14 19 23 25 27 23 18 21 28 29 31 33 33 29 27 24 20 10 10 13 15 15 16 16 14 11 12 12 11 12 11 11 10 10 8 7 9 10 8
12 12 7 14 20 23 24 24 25 27 23 20 27 28 30 32 30 27 25 19 17 12 11 13 14 16 17 16 14 14 14 14 13 12 12 12 11 10 10 9 10 7 5
13 9 10 16 21 25 17 21 24 25 24 23 21 21 29 29 20 20 12 13 14 11 12 12 14 16 22 13 11 12 12 13 12 11 11 11 12 10 9 10 7 9 10
6 6 11 18 18 22 23 20 25 25 24 22 19 22 24 21 18 16 13 12 13 13 12 13 16 16 18 15 13 11 10 11 11 11 10 10 9 8 8 9 10 6 4
10 12 16 18 21 22 23 24 25 24 24 24 23 23 18 19 17 15 14 13 13 12 13 15 13 16 14 14 14 12 12 11 11 8 9 10 8 7 8 7 6 7 9
20 18 18 19 19 22 21 22 24 25 26 24 25 21 14 18 18 16 14 14 17 18 18 15 13 9 9 10 9 9 10 9 8 7 7 7 7 10 7 5 3 3 6
24 22 22 23 24 20 22 21 22 27 28 25 20 21 20 18 16 15 16 16 17 17 17 15 14 14 10 10 9 7 10 8 8 8 6 6 4 1 2 1 3 6 7
23 21 22 20 20 21 22 22 23 27 25 22 22 23 20 18 17 16 15 16 17 18 17 15 14 12 11 10 7 7 9 8 7 5 6 5 3 2 3 6 6 7 9
23 23 24 22 22 22 22 22 23 24 25 24 23 21 20 20 20 23 20 17 19 18 18 16 14 11 9 7 8 10 9 8 5 3 3 4 7 10 12 15 16 18 17